#timestamp,LO_Frequency,Hit,StdDev 
1596341755.8,286047010.4,P
1596341775.6,286047007.8,P
1596341795.5,286047010.4,P
1596341815.3,286047009.6,Y
1596341835.1,286046999.8,P
1596341855.9,286047000.3,N
1596341875.7,286047000.1,N
1596341895.5,286047002.8,N
1596341915.4,286047000.3,N
1596341935.2,286047000.9,N
1596341955.1,286047000.8,N
1596341956.0,286047000.8,N
1596341975.8,286047000.4,N
1596341995.6,286047000.5,N
1596342015.5,286046998.4,N
1596342035.3,286046998.9,N
1596342055.1,286047000.0,N
1596342075.9,286047000.0,N
1596342095.7,286047000.0,N
1596342115.6,286047000.9,N
1596342135.4,286047001.0,N
1596342155.2,286047001.0,N
1596342175.1,286047000.3,N
1596342176.0,286047000.3,N
1596342195.8,286047000.2,N
1596342215.7,286047000.7,N
1596342235.5,286047000.3,N
1596342255.3,286047000.5,N
1596342275.2,286046998.3,N
1596342295.9,286046998.2,N
1596342315.7,286046998.8,N
1596342335.6,286046998.7,N
1596342355.4,286047001.0,N
1596342375.3,286047000.6,N
1596342395.1,286047000.4,N
1596342396.0,286047000.4,N
1596342415.8,286046999.9,N
1596342435.7,286047002.5,N
1596342455.5,286047002.3,N
1596342475.3,286047002.4,N
1596342495.2,286047000.3,N
1596342515.0,286047002.8,N
1596342515.9,286047002.8,N
1596342535.8,286047002.1,N
1596342555.6,286047002.4,N
1596342575.4,286047002.7,N
1596342595.3,286047000.1,N
1596342615.1,286047000.6,N
1596342635.8,286046999.7,N
1596342655.7,286046999.8,N
1596342675.5,286047000.3,N
1596342695.4,286047001.0,N
1596342715.2,286047000.7,N
1596342735.0,286047001.0,N
1596342735.9,286047001.0,N
1596342755.8,286046998.1,N
1596342775.6,286046998.4,N
1596342795.4,286047001.0,N
1596342815.3,286047000.5,N
1596342835.1,286046998.3,N
1596342855.9,286046998.4,N
1596342875.7,286047001.0,N
1596342895.5,286046998.7,N
1596342915.4,286046999.4,N
1596342935.2,286046998.5,N
1596342955.0,286046998.1,N
1596342955.9,286046998.1,N
1596342975.8,286046998.6,N
1596342995.6,286046999.0,N
1596343015.5,286046998.4,N
1596343035.3,286047000.1,N
1596343055.1,286047000.5,N
1596343075.9,286046998.9,N
1596343095.7,286046997.0,N
1596343115.5,286047001.1,N
1596343135.4,286046998.7,N
1596343155.2,286046999.2,N
1596343175.1,286046999.3,N
1596343176.0,286046999.3,N
1596343195.8,286046998.8,N
1596343215.6,286046999.4,N
1596343235.5,286046999.3,N
1596343255.3,286046996.8,N
1596343275.2,286046999.2,N
1596343295.9,286046998.1,N
1596343315.7,286046998.7,N
1596343335.6,286046999.4,N
1596343355.4,286046997.0,N
1596343375.2,286046997.5,N
1596343395.1,286046997.0,N
1596343396.0,286046997.0,N
1596343415.8,286046995.2,Y
1596343435.7,286046995.3,P
1596343455.5,286046997.9,N
1596343475.3,286046994.9,P
1596343495.2,286046997.4,N
1596343515.0,286046995.4,Y
1596343515.9,286046995.4,P
1596343535.7,286046998.5,N
1596343555.6,286047000.6,N
1596343575.4,286047001.0,N
1596343595.3,286047000.2,N
1596343615.1,286046998.6,N
1596343616.0,286046998.6,N
1596343635.8,286047000.7,N
1596343655.7,286047001.0,N
1596343675.5,286046998.3,N
1596343695.3,286046998.5,N
1596343715.2,286046998.9,N
1596343735.0,286047001.0,N
1596343735.9,286047001.0,N
1596343755.8,286047001.1,N
1596343775.6,286046996.5,N
1596343795.4,286046999.0,N
1596343815.3,286046997.0,N
1596343835.1,286046996.8,N
1596343855.9,286046999.4,N
1596343875.7,286046999.5,N
1596343895.5,286046999.3,N
1596343915.4,286046996.8,N
1596343935.2,286046997.9,N
1596343955.0,286046997.3,N
1596343955.9,286046997.3,N
1596343975.8,286046997.8,N
1596343995.6,286046994.9,Y
1596344015.5,286046996.5,P
1596344035.3,286046997.2,N
1596344055.1,286046997.7,N
1596344075.9,286046997.9,N
1596344095.7,286046994.9,Y
1596344115.5,286046998.9,P
1596344135.4,286046999.0,N
1596344155.2,286046999.6,N
1596344175.1,286046997.1,Y
1596344176.0,286046997.1,P
1596344195.8,286046998.7,N
1596344215.6,286046998.6,N
1596344235.5,286046999.3,N
1596344255.3,286046998.6,N
1596344275.1,286046998.1,N
1596344295.9,286046999.5,N
1596344315.7,286046996.6,Y
1596344335.6,286046999.3,P
1596344355.4,286046998.8,P
1596344375.2,286046998.4,P
1596344395.1,286046998.4,Y
1596344396.0,286046998.4,P
